Time,TemperatureF,DewpointF,PressureIn,WindDirection,WindDirectionDegrees,WindSpeedMPH,WindSpeedGustMPH,Humidity,HourlyPrecipIn,Conditions,Clouds,dailyrainin,SoftwareType,DateUTC
2013-10-18 00:00:00,-999.0,-99.9,-100.00,NNE,16,2.0,-999.0,-999,0.00,,,0.00,,2013-10-18 05:00:00,
2013-10-18 00:30:00,-999.0,-99.9,-100.00,NNE,30,3.0,-999.0,-999,0.00,,,0.00,,2013-10-18 05:30:00,
2013-10-18 00:34:00,-999.0,-99.9,-100.00,NNE,16,2.0,-999.0,-999,0.00,,,0.00,,2013-10-18 05:34:00,
2013-10-18 00:43:00,-999.0,-99.9,-100.00,NNE,16,2.0,-999.0,-999,0.00,,,0.00,,2013-10-18 05:43:00,
2013-10-18 00:52:00,-999.0,-99.9,-100.00,NNE,16,2.0,-999.0,-999,0.00,,,0.00,,2013-10-18 05:52:00,
2013-10-18 01:00:00,-999.0,-99.9,-100.00,North,10,3.0,-999.0,-999,0.00,,,0.00,,2013-10-18 06:00:00,
2013-10-18 01:42:00,-999.0,-99.9,-100.00,North,10,3.0,-999.0,-999,0.00,,,0.00,,2013-10-18 06:42:00,
2013-10-18 01:52:00,-999.0,-99.9,-100.00,North,10,3.0,-999.0,-999,0.00,,,0.00,,2013-10-18 06:52:00,
2013-10-18 02:00:00,-999.0,-99.9,-100.00,ENE,59,3.0,-999.0,-999,0.00,,,0.00,,2013-10-18 07:00:00,
2013-10-18 02:32:00,-999.0,-99.9,-100.00,ENE,59,3.0,-999.0,-999,0.00,,,0.00,,2013-10-18 07:32:00,
2013-10-18 02:42:00,-999.0,-99.9,-100.00,ENE,59,3.0,-999.0,-999,0.00,,,0.00,,2013-10-18 07:42:00,
2013-10-18 02:52:00,-999.0,-99.9,-100.00,ENE,59,3.0,-999.0,-999,0.00,,,0.00,,2013-10-18 07:52:00,
2013-10-18 03:00:00,-999.0,-99.9,-100.00,North,7,3.0,-999.0,-999,0.00,,,0.00,,2013-10-18 08:00:00,
2013-10-18 03:32:00,-999.0,-99.9,-100.00,North,7,3.0,-999.0,-999,0.00,,,0.00,,2013-10-18 08:32:00,
2013-10-18 03:42:00,-999.0,-99.9,-100.00,North,7,3.0,-999.0,-999,0.00,,,0.00,,2013-10-18 08:42:00,
2013-10-18 03:52:00,-999.0,-99.9,-100.00,North,7,3.0,-999.0,-999,0.00,,,0.00,,2013-10-18 08:52:00,
2013-10-18 04:00:00,-999.0,-99.9,-100.00,NNW,327,2.0,-999.0,-999,0.00,,,0.00,,2013-10-18 09:00:00,
2013-10-18 04:33:00,-999.0,-99.9,-100.00,NNW,327,2.0,-999.0,-999,0.00,,,0.00,,2013-10-18 09:33:00,
2013-10-18 04:43:00,-999.0,-99.9,-100.00,NNW,327,2.0,-999.0,-999,0.00,,,0.00,,2013-10-18 09:43:00,
2013-10-18 04:53:00,-999.0,-99.9,-100.00,NNW,327,2.0,-999.0,-999,0.00,,,0.00,,2013-10-18 09:53:00,
2013-10-18 05:00:00,-999.0,-99.9,-100.00,NE,56,2.0,-999.0,-999,0.00,,,0.00,,2013-10-18 10:00:00,
2013-10-18 05:33:00,-999.0,-99.9,-100.00,NE,56,2.0,-999.0,-999,0.00,,,0.00,,2013-10-18 10:33:00,
2013-10-18 05:43:00,-999.0,-99.9,-100.00,NE,56,2.0,-999.0,-999,0.00,,,0.00,,2013-10-18 10:43:00,
2013-10-18 05:53:00,-999.0,-99.9,-100.00,NE,56,2.0,-999.0,-999,0.00,,,0.00,,2013-10-18 10:53:00,
2013-10-18 06:00:00,-999.0,-99.9,-100.00,East,90,2.0,-999.0,-999,0.00,,,0.00,,2013-10-18 11:00:00,
2013-10-18 06:33:00,-999.0,-99.9,-100.00,East,90,2.0,-999.0,-999,0.00,,,0.00,,2013-10-18 11:33:00,
2013-10-18 06:42:00,-999.0,-99.9,-100.00,East,90,2.0,-999.0,-999,0.00,,,0.00,,2013-10-18 11:42:00,
2013-10-18 06:52:00,-999.0,-99.9,-100.00,East,90,2.0,-999.0,-999,0.00,,,0.00,,2013-10-18 11:52:00,
2013-10-18 07:00:00,-999.0,-99.9,-100.00,WSW,247,0.0,-999.0,-999,0.00,,,0.00,,2013-10-18 12:00:00,
2013-10-18 07:32:00,-999.0,-99.9,-100.00,WSW,247,0.0,-999.0,-999,0.00,,,0.00,,2013-10-18 12:32:00,
2013-10-18 07:42:00,-999.0,-99.9,-100.00,WSW,247,0.0,-999.0,-999,0.00,,,0.00,,2013-10-18 12:42:00,
2013-10-18 07:52:00,-999.0,-99.9,-100.00,WSW,247,0.0,-999.0,-999,0.00,,,0.00,,2013-10-18 12:52:00,
2013-10-18 08:00:00,-999.0,-99.9,-100.00,NE,42,2.0,-999.0,-999,0.00,,,0.00,,2013-10-18 13:00:00,
2013-10-18 08:32:00,-999.0,-99.9,-100.00,NE,42,2.0,-999.0,-999,0.00,,,0.00,,2013-10-18 13:32:00,
2013-10-18 08:42:00,-999.0,-99.9,-100.00,NE,42,2.0,-999.0,-999,0.00,,,0.00,,2013-10-18 13:42:00,
2013-10-18 08:52:00,-999.0,-99.9,-100.00,NE,42,2.0,-999.0,-999,0.00,,,0.00,,2013-10-18 13:52:00,
2013-10-18 09:00:00,-999.0,-99.9,-100.00,NNE,30,2.0,-999.0,-999,0.00,,,0.00,,2013-10-18 14:00:00,
2013-10-18 09:32:00,-999.0,-99.9,-100.00,NNE,30,2.0,-999.0,-999,0.00,,,0.00,,2013-10-18 14:32:00,
2013-10-18 09:42:00,-999.0,-99.9,-100.00,NNE,30,2.0,-999.0,-999,0.00,,,0.00,,2013-10-18 14:42:00,
2013-10-18 09:52:00,-999.0,-99.9,-100.00,NNE,30,2.0,-999.0,-999,0.00,,,0.00,,2013-10-18 14:52:00,
2013-10-18 10:00:00,-999.0,-99.9,-100.00,WNW,300,0.0,-999.0,-999,0.00,,,0.00,,2013-10-18 15:00:00,
2013-10-18 10:33:00,-999.0,-99.9,-100.00,WNW,300,0.0,-999.0,-999,0.00,,,0.00,,2013-10-18 15:33:00,
2013-10-18 10:43:00,-999.0,-99.9,-100.00,WNW,300,0.0,-999.0,-999,0.00,,,0.00,,2013-10-18 15:43:00,
2013-10-18 10:54:00,-999.0,-99.9,-100.00,WNW,300,0.0,-999.0,-999,0.00,,,0.00,,2013-10-18 15:54:00,
2013-10-18 11:00:00,-999.0,-99.9,-100.00,ENE,64,10.0,-999.0,-999,0.00,,,0.00,,2013-10-18 16:00:00,
2013-10-18 11:33:00,-999.0,-99.9,-100.00,ENE,64,10.0,-999.0,-999,0.00,,,0.00,,2013-10-18 16:33:00,
2013-10-18 11:42:00,-999.0,-99.9,-100.00,ENE,64,10.0,-999.0,-999,0.00,,,0.00,,2013-10-18 16:42:00,
2013-10-18 11:53:00,-999.0,-99.9,-100.00,ENE,64,10.0,-999.0,-999,0.00,,,0.00,,2013-10-18 16:53:00,
2013-10-18 12:00:00,-999.0,-99.9,-100.00,NW,323,4.0,-999.0,-999,0.00,,,0.00,,2013-10-18 17:00:00,
2013-10-18 12:42:00,-999.0,-99.9,-100.00,NW,323,4.0,-999.0,-999,0.00,,,0.00,,2013-10-18 17:42:00,
2013-10-18 12:52:00,-999.0,-99.9,-100.00,NW,323,4.0,-999.0,-999,0.00,,,0.00,,2013-10-18 17:52:00,
2013-10-18 13:00:00,-999.0,-99.9,-100.00,SSE,158,2.0,-999.0,-999,0.00,,,0.00,,2013-10-18 18:00:00,
2013-10-18 13:32:00,-999.0,-99.9,-100.00,SSE,158,2.0,-999.0,-999,0.00,,,0.00,,2013-10-18 18:32:00,
2013-10-18 13:42:00,-999.0,-99.9,-100.00,SSE,158,2.0,-999.0,-999,0.00,,,0.00,,2013-10-18 18:42:00,
2013-10-18 13:52:00,-999.0,-99.9,-100.00,SSE,158,2.0,-999.0,-999,0.00,,,0.00,,2013-10-18 18:52:00,
2013-10-18 14:00:00,-999.0,-99.9,-100.00,NNE,23,0.0,-999.0,-999,0.00,,,0.00,,2013-10-18 19:00:00,
2013-10-18 14:32:00,-999.0,-99.9,-100.00,NNE,23,0.0,-999.0,-999,0.00,,,0.00,,2013-10-18 19:32:00,
2013-10-18 14:42:00,-999.0,-99.9,-100.00,NNE,23,0.0,-999.0,-999,0.00,,,0.00,,2013-10-18 19:42:00,
2013-10-18 14:52:00,-999.0,-99.9,-100.00,NNE,23,0.0,-999.0,-999,0.00,,,0.00,,2013-10-18 19:52:00,
2013-10-18 15:00:00,-999.0,-99.9,-100.00,East,87,9.0,-999.0,-999,0.00,,,0.00,,2013-10-18 20:00:00,
2013-10-18 15:32:00,-999.0,-99.9,-100.00,East,87,9.0,-999.0,-999,0.00,,,0.00,,2013-10-18 20:32:00,
2013-10-18 15:42:00,-999.0,-99.9,-100.00,East,87,9.0,-999.0,-999,0.00,,,0.00,,2013-10-18 20:42:00,
2013-10-18 15:52:00,-999.0,-99.9,-100.00,East,87,9.0,-999.0,-999,0.00,,,0.00,,2013-10-18 20:52:00,
2013-10-18 16:00:00,-999.0,-99.9,-100.00,East,85,4.0,-999.0,-999,0.00,,,0.00,,2013-10-18 21:00:00,
2013-10-18 16:34:00,-999.0,-99.9,-100.00,East,85,4.0,-999.0,-999,0.00,,,0.00,,2013-10-18 21:34:00,
2013-10-18 16:45:00,-999.0,-99.9,-100.00,East,85,4.0,-999.0,-999,0.00,,,0.00,,2013-10-18 21:45:00,
2013-10-18 16:54:00,-999.0,-99.9,-100.00,East,85,4.0,-999.0,-999,0.00,,,0.00,,2013-10-18 21:54:00,
2013-10-18 17:00:00,-999.0,-99.9,-100.00,SSW,210,1.0,-999.0,-999,0.00,,,0.00,,2013-10-18 22:00:00,
2013-10-18 17:33:00,-999.0,-99.9,-100.00,SSW,210,1.0,-999.0,-999,0.00,,,0.00,,2013-10-18 22:33:00,
2013-10-18 17:43:00,-999.0,-99.9,-100.00,SSW,210,1.0,-999.0,-999,0.00,,,0.00,,2013-10-18 22:43:00,
2013-10-18 17:54:00,-999.0,-99.9,-100.00,SSW,210,1.0,-999.0,-999,0.00,,,0.00,,2013-10-18 22:54:00,
2013-10-18 18:00:00,-999.0,-99.9,-100.00,ESE,111,1.0,-999.0,-999,0.00,,,0.00,,2013-10-18 23:00:00,
2013-10-18 18:34:00,-999.0,-99.9,-100.00,ESE,111,1.0,-999.0,-999,0.00,,,0.00,,2013-10-18 23:34:00,
2013-10-18 18:43:00,-999.0,-99.9,-100.00,ESE,111,1.0,-999.0,-999,0.00,,,0.00,,2013-10-18 23:43:00,
2013-10-18 18:53:00,-999.0,-99.9,-100.00,ESE,111,1.0,-999.0,-999,0.00,,,0.00,,2013-10-18 23:53:00,
2013-10-18 19:00:00,-999.0,-99.9,-100.00,WNW,284,0.0,-999.0,-999,0.00,,,0.00,,2013-10-19 00:00:00,
2013-10-18 19:32:00,-999.0,-99.9,-100.00,WNW,284,0.0,-999.0,-999,0.00,,,0.00,,2013-10-19 00:32:00,
2013-10-18 19:42:00,-999.0,-99.9,-100.00,WNW,284,0.0,-999.0,-999,0.00,,,0.00,,2013-10-19 00:42:00,
2013-10-18 19:52:00,-999.0,-99.9,-100.00,WNW,284,0.0,-999.0,-999,0.00,,,0.00,,2013-10-19 00:52:00,
2013-10-18 20:00:00,-999.0,-99.9,-100.00,North,11,1.0,-999.0,-999,0.00,,,0.00,,2013-10-19 01:00:00,
2013-10-18 20:32:00,-999.0,-99.9,-100.00,North,11,1.0,-999.0,-999,0.00,,,0.00,,2013-10-19 01:32:00,
2013-10-18 20:42:00,-999.0,-99.9,-100.00,North,11,1.0,-999.0,-999,0.00,,,0.00,,2013-10-19 01:42:00,
2013-10-18 20:53:00,-999.0,-99.9,-100.00,North,11,1.0,-999.0,-999,0.00,,,0.00,,2013-10-19 01:53:00,
2013-10-18 21:00:00,-999.0,-99.9,-100.00,West,270,1.0,-999.0,-999,0.00,,,0.00,,2013-10-19 02:00:00,
2013-10-18 21:32:00,-999.0,-99.9,-100.00,West,270,1.0,-999.0,-999,0.00,,,0.00,,2013-10-19 02:32:00,
2013-10-18 21:42:00,-999.0,-99.9,-100.00,West,270,1.0,-999.0,-999,0.00,,,0.00,,2013-10-19 02:42:00,
2013-10-18 21:52:00,-999.0,-99.9,-100.00,West,270,1.0,-999.0,-999,0.00,,,0.00,,2013-10-19 02:52:00,
2013-10-18 22:00:00,-999.0,-99.9,-100.00,NE,53,3.0,-999.0,-999,0.00,,,0.00,,2013-10-19 03:00:00,
2013-10-18 22:34:00,-999.0,-99.9,-100.00,NE,53,3.0,-999.0,-999,0.00,,,0.00,,2013-10-19 03:34:00,
2013-10-18 22:45:00,-999.0,-99.9,-100.00,NE,53,3.0,-999.0,-999,0.00,,,0.00,,2013-10-19 03:45:00,
2013-10-18 22:55:00,-999.0,-99.9,-100.00,NE,53,3.0,-999.0,-999,0.00,,,0.00,,2013-10-19 03:55:00,
2013-10-18 23:00:00,-999.0,-99.9,-100.00,East,92,5.0,-999.0,-999,0.00,,,0.00,,2013-10-19 04:00:00,
2013-10-18 23:34:00,-999.0,-99.9,-100.00,East,92,5.0,-999.0,-999,0.00,,,0.00,,2013-10-19 04:34:00,
2013-10-18 23:44:00,-999.0,-99.9,-100.00,East,92,5.0,-999.0,-999,0.00,,,0.00,,2013-10-19 04:44:00,
2013-10-18 23:54:00,-999.0,-99.9,-100.00,East,92,5.0,-999.0,-999,0.00,,,0.00,,2013-10-19 04:54:00,